Flag for Trinidad and Tobago Weather past 2 weeks in San Fernando, Trinidad and Tobago

Now
77 °F

Passing clouds.


Feels Like: 78 °F
Forecast: 79 / 89 °F
Wind: 7 mph from East

Location: Piarco International Airport - Trinidad

Current Time: Aug 2, 2014 at 2:53:37 AM

Latest Report: Aug 2, 2014 at 2:00 AM


Visibility: N/A

Pressure: 29.95 "Hg

Humidity: 94%

Dew point: 75 °F

Location of San FernandoLocation

Historic Weather in San Fernando — Graph

°F

San Fernando temperature yesterday

Maximum temperature yesterday: 84 °F (at 8:00 AM)
Minimum temperature yesterday: 75 °F (at 5:00 AM)
Average temperature yesterday: 80 °F

Past Weeks' High & Low Weather Summary

 TemperatureHumidityPressure
High93 °F (Jul 31, 12:00 PM)100% (Jul 18, 2:00 PM)30.07 "Hg (Jul 18, 2:00 PM)
Low73 °F (Jul 18, 2:00 PM)52% (Jul 30, 1:00 PM)29.83 "Hg (Aug 1, 4:00 PM)
Average81 °F79%29.96 "Hg
* Reported Jul 18 1:00 AM — Aug 2 1:00 AM, San Fernando, Weather by CustomWeather, © 2014

Note: Actual official high and low records may vary slightly from our data, if they occured in-between our weather recording intervals... More about our weather records

Advertising

San Fernando weather history for previous 24 hours

 ConditionsComfort  
Time TempWeatherWind HumidityBarometerVisibility
1:00 AM
Aug 2
77 °FSprinkles. Passing clouds.8 mph89%29.95 "HgN/A
12:00 AM79 °FPassing clouds.6 mph84%29.95 "HgN/A
11:00 PM
Aug 1
79 °FPassing clouds.6 mph84%29.95 "HgN/A
10:00 PM79 °FPassing clouds.6 mph84%29.95 "HgN/A
9:00 PM79 °FPassing clouds.6 mph79%29.95 "HgN/A
8:00 PM81 °FPassing clouds.6 mph84%29.89 "HgN/A
7:00 PM81 °FPassing clouds.No wind84%29.89 "HgN/A
6:00 PM82 °FPassing clouds.No wind79%29.86 "HgN/A
5:00 PM82 °FPassing clouds.No wind74%29.83 "HgN/A
4:00 PM82 °FPassing clouds.No wind74%29.83 "HgN/A
3:00 PM81 °FSprinkles. Scattered clouds.3 mph79%29.86 "HgN/A
2:00 PM84 °FPassing clouds.6 mph70%29.92 "HgN/A
1:00 PM82 °FPassing clouds.6 mph74%29.92 "HgN/A
12:00 PM81 °FPassing clouds.6 mph79%29.95 "HgN/A
11:00 AM81 °FPassing clouds.6 mph79%29.95 "HgN/A
10:00 AM81 °FPassing clouds.12 mph79%29.95 "HgN/A
9:00 AM84 °FPassing clouds.No wind70%29.95 "HgN/A
8:00 AM84 °FScattered showers. Passing clouds.No wind70%29.92 "Hg5 mi
7:00 AM77 °FScattered clouds.No wind89%29.92 "HgN/A
6:00 AM75 °FPassing clouds.No wind89%29.89 "HgN/A
5:00 AM75 °FPassing clouds.No wind89%29.89 "HgN/A
4:00 AM77 °FPassing clouds.No wind94%29.89 "HgN/A
3:00 AM77 °FPassing clouds.No wind94%29.89 "HgN/A
2:00 AM79 °FPassing clouds.No wind84%29.92 "HgN/A
Weather by CustomWeather, © 2014

See weather overviewHow to use our weather pages